Location: Goettingen
(51.5300°N, 9.9433°E)
Time: 19:39:35
(UTC+02:00)

ISS - Pass Details

Date: 17 July 2019
Orbit: 409 x 418 km, 51.6° (Epoch: 20 July)

Event Time Altitude Azimuth Distance (km) Brightness Sun altitude
Rises 02:17:27 0° 275° (W) 2,349 0.0 -16.3°
Reaches altitude 10° 02:19:33 10° 275° (W) 1,485 -1.1 -16.3°
Maximum altitude 02:22:53 89° 352° (N) 417 -3.9 -16.1°
Drops below altitude 10° 02:26:13 10° 96° (E) 1,479 -0.9 -16.0°
Sets 02:28:17 0° 97° (E) 2,339 0.1 -15.9°
